Year,Month,Day,Hour,Minute,Value (Times are PST for temperature in C)
2017,10,18,00,00,5.50
2017,10,18,00,01,5.50
2017,10,18,00,02,5.50
2017,10,18,00,03,5.40
2017,10,18,00,04,5.40
2017,10,18,00,05,5.40
2017,10,18,00,06,5.40
2017,10,18,00,07,5.40
2017,10,18,00,08,5.40
2017,10,18,00,09,5.40
2017,10,18,00,10,5.40
2017,10,18,00,11,5.40
2017,10,18,00,12,5.40
2017,10,18,00,13,5.40
2017,10,18,00,14,5.50
2017,10,18,00,15,5.50
2017,10,18,00,16,5.50
2017,10,18,00,17,5.50
2017,10,18,00,18,5.50
2017,10,18,00,19,5.50
2017,10,18,00,20,5.50
2017,10,18,00,21,5.50
2017,10,18,00,22,5.50
2017,10,18,00,23,5.50
2017,10,18,00,24,5.50
2017,10,18,00,25,5.40
2017,10,18,00,26,5.40
2017,10,18,00,27,5.40
2017,10,18,00,28,5.40
2017,10,18,00,29,5.40
2017,10,18,00,30,5.40
2017,10,18,00,31,5.40
2017,10,18,00,32,5.40
2017,10,18,00,33,5.40
2017,10,18,00,34,5.40
2017,10,18,00,35,5.40
2017,10,18,00,36,5.30
2017,10,18,00,37,5.30
2017,10,18,00,38,5.30
2017,10,18,00,39,5.30
2017,10,18,00,40,5.30
2017,10,18,00,41,5.30
2017,10,18,00,42,5.30
2017,10,18,00,43,5.20
2017,10,18,00,44,5.20
2017,10,18,00,45,5.20
2017,10,18,00,46,5.20
2017,10,18,00,47,5.20
2017,10,18,00,48,5.20
2017,10,18,00,49,5.20
2017,10,18,00,50,5.20
2017,10,18,00,51,5.20
2017,10,18,00,52,5.20
2017,10,18,00,53,5.10
2017,10,18,00,54,5.10
2017,10,18,00,55,5.10
2017,10,18,00,56,5.10
2017,10,18,00,57,5.10
2017,10,18,00,58,5.10
2017,10,18,00,59,5.10
2017,10,18,01,00,5.10
2017,10,18,01,01,5.10
2017,10,18,01,02,5.00
2017,10,18,01,03,5.00
2017,10,18,01,04,5.00
2017,10,18,01,05,4.90
2017,10,18,01,06,4.90
2017,10,18,01,07,4.90
2017,10,18,01,08,4.90
2017,10,18,01,09,4.90
2017,10,18,01,10,4.90
2017,10,18,01,11,4.90
2017,10,18,01,12,4.90
2017,10,18,01,13,4.90
2017,10,18,01,14,4.90
2017,10,18,01,15,4.80
2017,10,18,01,16,4.80
2017,10,18,01,17,4.80
2017,10,18,01,18,4.80
2017,10,18,01,19,4.80
2017,10,18,01,20,4.80
2017,10,18,01,21,4.80
2017,10,18,01,22,4.80
2017,10,18,01,23,4.80
2017,10,18,01,24,4.80
2017,10,18,01,25,4.80
2017,10,18,01,26,4.80
2017,10,18,01,27,4.80
2017,10,18,01,28,4.80
2017,10,18,01,29,4.80
2017,10,18,01,30,4.80
2017,10,18,01,31,4.80
2017,10,18,01,32,4.80
2017,10,18,01,33,4.80
2017,10,18,01,34,4.80
2017,10,18,01,35,4.90
2017,10,18,01,36,4.90
2017,10,18,01,37,4.90
2017,10,18,01,38,4.90
2017,10,18,01,39,4.90
2017,10,18,01,40,4.80
2017,10,18,01,41,4.80
2017,10,18,01,42,4.80
2017,10,18,01,43,4.80
2017,10,18,01,44,4.80
2017,10,18,01,45,4.70
2017,10,18,01,46,4.70
2017,10,18,01,47,4.70
2017,10,18,01,48,4.70
2017,10,18,01,49,4.70
2017,10,18,01,50,4.60
2017,10,18,01,51,4.60
2017,10,18,01,52,4.60
2017,10,18,01,53,4.60
2017,10,18,01,54,4.60
2017,10,18,01,55,4.60
2017,10,18,01,56,4.60
2017,10,18,01,57,4.60
2017,10,18,01,58,4.60
2017,10,18,01,59,4.60
2017,10,18,02,00,4.60
2017,10,18,02,01,4.50
2017,10,18,02,02,4.50
2017,10,18,02,03,4.50
2017,10,18,02,04,4.50
2017,10,18,02,05,4.50
2017,10,18,02,06,4.50
2017,10,18,02,07,4.50
2017,10,18,02,08,4.50
2017,10,18,02,09,4.50
2017,10,18,02,10,4.50
2017,10,18,02,11,4.60
2017,10,18,02,12,4.60
2017,10,18,02,13,4.50
2017,10,18,02,14,4.50
2017,10,18,02,15,4.50
2017,10,18,02,16,4.50
2017,10,18,02,17,4.50
2017,10,18,02,18,4.50
2017,10,18,02,19,4.50
2017,10,18,02,20,4.50
2017,10,18,02,21,4.50
2017,10,18,02,22,4.50
2017,10,18,02,23,4.50
2017,10,18,02,24,4.50
2017,10,18,02,25,4.50
2017,10,18,02,26,4.50
2017,10,18,02,27,4.50
2017,10,18,02,28,4.50
2017,10,18,02,29,4.40
2017,10,18,02,30,4.40
2017,10,18,02,31,4.40
2017,10,18,02,32,4.40
2017,10,18,02,33,4.50
2017,10,18,02,34,4.50
2017,10,18,02,35,4.50
2017,10,18,02,36,4.60
2017,10,18,02,37,4.60
2017,10,18,02,38,4.60
2017,10,18,02,39,4.60
2017,10,18,02,40,4.70
2017,10,18,02,41,4.70
2017,10,18,02,42,4.70
2017,10,18,02,43,4.70
2017,10,18,02,44,4.70
2017,10,18,02,45,4.70
2017,10,18,02,46,4.70
2017,10,18,02,47,4.70
2017,10,18,02,48,4.70
2017,10,18,02,49,4.70
2017,10,18,02,50,4.60
2017,10,18,02,51,4.60
2017,10,18,02,52,4.60
2017,10,18,02,53,4.60
2017,10,18,02,54,4.60
2017,10,18,02,55,4.70
2017,10,18,02,56,4.70
2017,10,18,02,57,4.70
2017,10,18,02,58,4.70
2017,10,18,02,59,4.70
2017,10,18,03,00,4.70
2017,10,18,03,01,4.70
2017,10,18,03,02,4.80
2017,10,18,03,03,4.80
2017,10,18,03,04,4.80
2017,10,18,03,05,4.90
2017,10,18,03,06,4.90
2017,10,18,03,07,4.90
2017,10,18,03,08,4.90
2017,10,18,03,09,5.00
2017,10,18,03,10,5.00
2017,10,18,03,11,5.00
2017,10,18,03,12,5.10
2017,10,18,03,13,5.10
2017,10,18,03,14,5.10
2017,10,18,03,15,5.10
2017,10,18,03,16,5.10
2017,10,18,03,17,5.20
2017,10,18,03,18,5.20
2017,10,18,03,19,5.20
2017,10,18,03,20,5.20
2017,10,18,03,21,5.20
2017,10,18,03,22,5.20
2017,10,18,03,23,5.20
2017,10,18,03,24,5.20
2017,10,18,03,25,5.20
2017,10,18,03,26,5.20
2017,10,18,03,27,5.20
2017,10,18,03,28,5.20
2017,10,18,03,29,5.20
2017,10,18,03,30,5.20
2017,10,18,03,31,5.20
2017,10,18,03,32,5.20
2017,10,18,03,33,5.20
2017,10,18,03,34,5.30
2017,10,18,03,35,5.30
2017,10,18,03,36,5.30
2017,10,18,03,37,5.30
2017,10,18,03,38,5.30
2017,10,18,03,39,5.30
2017,10,18,03,40,5.40
2017,10,18,03,41,5.40
2017,10,18,03,42,5.40
2017,10,18,03,43,5.40
2017,10,18,03,44,5.40
2017,10,18,03,45,5.40
2017,10,18,03,46,5.40
2017,10,18,03,47,5.40
2017,10,18,03,48,5.40
2017,10,18,03,49,5.50
2017,10,18,03,50,5.50
2017,10,18,03,51,5.50
2017,10,18,03,52,5.50
2017,10,18,03,53,5.50
2017,10,18,03,54,5.50
2017,10,18,03,55,5.50
2017,10,18,03,56,5.50
2017,10,18,03,57,5.60
2017,10,18,03,58,5.60
2017,10,18,03,59,5.60
2017,10,18,04,00,5.60
2017,10,18,04,01,5.60
2017,10,18,04,02,5.60
2017,10,18,04,03,5.60
2017,10,18,04,04,5.60
2017,10,18,04,05,5.60
2017,10,18,04,06,5.60
2017,10,18,04,07,5.60
2017,10,18,04,08,5.60
2017,10,18,04,09,5.60
2017,10,18,04,10,5.60
2017,10,18,04,11,5.60
2017,10,18,04,12,5.60
2017,10,18,04,13,5.60
2017,10,18,04,14,5.60
2017,10,18,04,15,5.70
2017,10,18,04,16,5.70
2017,10,18,04,17,5.70
2017,10,18,04,18,5.70
2017,10,18,04,19,5.70
2017,10,18,04,20,5.70
2017,10,18,04,21,5.70
2017,10,18,04,22,5.70
2017,10,18,04,23,5.70
2017,10,18,04,24,5.70
2017,10,18,04,25,5.80
2017,10,18,04,26,5.80
2017,10,18,04,27,5.80
2017,10,18,04,28,5.80
2017,10,18,04,29,5.90
2017,10,18,04,30,6.00
2017,10,18,04,31,6.10
2017,10,18,04,32,6.20
2017,10,18,04,33,6.30
2017,10,18,04,34,6.40
2017,10,18,04,35,6.50
2017,10,18,04,36,6.60
2017,10,18,04,37,6.60
2017,10,18,04,38,6.60
2017,10,18,04,39,6.70
2017,10,18,04,40,6.70
2017,10,18,04,41,6.70
2017,10,18,04,42,6.70
2017,10,18,04,43,6.70
2017,10,18,04,44,6.80
2017,10,18,04,45,6.80
2017,10,18,04,46,6.80
2017,10,18,04,47,6.80
2017,10,18,04,48,6.90
2017,10,18,04,49,6.90
2017,10,18,04,50,6.90
2017,10,18,04,51,6.90
2017,10,18,04,52,6.90
2017,10,18,04,53,6.90
2017,10,18,04,54,7.00
2017,10,18,04,55,7.00
2017,10,18,04,56,7.00
2017,10,18,04,57,7.10
2017,10,18,04,58,7.10
2017,10,18,04,59,7.10
2017,10,18,05,00,7.10
2017,10,18,05,01,7.20
2017,10,18,05,02,7.20
2017,10,18,05,03,7.20
2017,10,18,05,04,7.20
2017,10,18,05,05,7.20
2017,10,18,05,06,7.20
2017,10,18,05,07,7.20
2017,10,18,05,08,7.30
2017,10,18,05,09,7.30
2017,10,18,05,10,7.30
2017,10,18,05,11,7.30
2017,10,18,05,12,7.30
2017,10,18,05,13,7.30
2017,10,18,05,14,7.30
2017,10,18,05,15,7.30
2017,10,18,05,16,7.40
2017,10,18,05,17,7.40
2017,10,18,05,18,7.40
2017,10,18,05,19,7.40
2017,10,18,05,20,7.40
2017,10,18,05,21,7.40
2017,10,18,05,22,7.40
2017,10,18,05,23,7.40
2017,10,18,05,24,7.50
2017,10,18,05,25,7.50
2017,10,18,05,26,7.50
2017,10,18,05,27,7.50
2017,10,18,05,28,7.50
2017,10,18,05,29,7.50
2017,10,18,05,30,7.50
2017,10,18,05,31,7.60
2017,10,18,05,32,7.60
2017,10,18,05,33,7.60
2017,10,18,05,34,7.70
2017,10,18,05,35,7.70
2017,10,18,05,36,7.70
2017,10,18,05,37,7.70
2017,10,18,05,38,7.70
2017,10,18,05,39,7.80
2017,10,18,05,40,7.80
2017,10,18,05,41,7.80
2017,10,18,05,42,7.80
2017,10,18,05,43,7.80
2017,10,18,05,44,7.80
2017,10,18,05,45,7.80
2017,10,18,05,46,7.80
2017,10,18,05,47,7.90
2017,10,18,05,48,7.90
2017,10,18,05,49,7.90
2017,10,18,05,50,7.90
2017,10,18,05,51,7.90
2017,10,18,05,52,7.90
2017,10,18,05,53,7.90
2017,10,18,05,54,7.90
2017,10,18,05,55,7.90
2017,10,18,05,56,7.90
2017,10,18,05,57,8.00
2017,10,18,05,58,8.00
2017,10,18,05,59,8.10
2017,10,18,06,00,8.10
2017,10,18,06,01,8.10
2017,10,18,06,02,8.10
2017,10,18,06,03,8.10
2017,10,18,06,04,8.10
2017,10,18,06,05,8.10
2017,10,18,06,06,8.10
2017,10,18,06,07,8.10
2017,10,18,06,08,8.10
2017,10,18,06,09,8.10
2017,10,18,06,10,8.10
2017,10,18,06,11,8.10
2017,10,18,06,12,8.10
2017,10,18,06,13,8.10
2017,10,18,06,14,8.10
2017,10,18,06,15,8.20
2017,10,18,06,16,8.20
2017,10,18,06,17,8.20
2017,10,18,06,18,8.20
2017,10,18,06,19,8.20
2017,10,18,06,20,8.20
2017,10,18,06,21,8.10
2017,10,18,06,22,8.10
2017,10,18,06,23,8.10
2017,10,18,06,24,8.10
2017,10,18,06,25,8.10
2017,10,18,06,26,8.10
2017,10,18,06,27,8.10
2017,10,18,06,28,8.10
2017,10,18,06,29,8.10
2017,10,18,06,30,8.10
2017,10,18,06,31,8.10
2017,10,18,06,32,8.10
2017,10,18,06,33,8.10
2017,10,18,06,34,8.10
2017,10,18,06,35,8.10
2017,10,18,06,36,8.10
2017,10,18,06,37,8.10
2017,10,18,06,38,8.10
2017,10,18,06,39,8.10
2017,10,18,06,40,8.10
2017,10,18,06,41,8.10
2017,10,18,06,42,8.10
2017,10,18,06,43,8.10
2017,10,18,06,44,8.10
2017,10,18,06,45,8.00
2017,10,18,06,46,8.00
2017,10,18,06,47,8.00
2017,10,18,06,48,8.00
2017,10,18,06,49,8.00
2017,10,18,06,50,8.00
2017,10,18,06,51,8.00
2017,10,18,06,52,8.00
2017,10,18,06,53,8.00
2017,10,18,06,54,7.90
2017,10,18,06,55,7.90
2017,10,18,06,56,7.90
2017,10,18,06,57,7.90
2017,10,18,06,58,7.90
2017,10,18,06,59,7.90
2017,10,18,07,00,7.90
2017,10,18,07,01,7.90
2017,10,18,07,02,7.90
2017,10,18,07,03,7.90
2017,10,18,07,04,7.80
2017,10,18,07,05,7.80
2017,10,18,07,06,7.80
2017,10,18,07,07,7.80
2017,10,18,07,08,7.80
2017,10,18,07,09,7.80
2017,10,18,07,10,7.80
2017,10,18,07,11,7.80
2017,10,18,07,12,7.80
2017,10,18,07,13,7.80
2017,10,18,07,14,7.80
2017,10,18,07,15,7.80
2017,10,18,07,16,7.80
2017,10,18,07,17,7.70
2017,10,18,07,18,7.70
2017,10,18,07,19,7.70
2017,10,18,07,20,7.70
2017,10,18,07,21,7.70
2017,10,18,07,22,7.70
2017,10,18,07,23,7.70
2017,10,18,07,24,7.70
2017,10,18,07,25,7.70
2017,10,18,07,26,7.70
2017,10,18,07,27,7.60
2017,10,18,07,28,7.60
2017,10,18,07,29,7.60
2017,10,18,07,30,7.60
2017,10,18,07,31,7.60
2017,10,18,07,32,7.60
2017,10,18,07,33,7.60
2017,10,18,07,34,7.60
2017,10,18,07,35,7.60
2017,10,18,07,36,7.60
2017,10,18,07,37,7.60
2017,10,18,07,38,7.60
2017,10,18,07,39,7.60
2017,10,18,07,40,7.60
2017,10,18,07,41,7.60
2017,10,18,07,42,7.60
2017,10,18,07,43,7.60
2017,10,18,07,44,7.60
2017,10,18,07,45,7.50
2017,10,18,07,46,7.50
2017,10,18,07,47,7.50
2017,10,18,07,48,7.50
2017,10,18,07,49,7.50
2017,10,18,07,50,7.50
2017,10,18,07,51,7.50
2017,10,18,07,52,7.50
2017,10,18,07,53,7.50
2017,10,18,07,54,7.50
2017,10,18,07,55,7.50
2017,10,18,07,56,7.50
2017,10,18,07,57,7.50
2017,10,18,07,58,7.50
2017,10,18,07,59,7.50
2017,10,18,08,00,7.50
2017,10,18,08,01,7.50
2017,10,18,08,02,7.50
2017,10,18,08,03,7.50
2017,10,18,08,04,7.50
2017,10,18,08,05,7.50
2017,10,18,08,06,7.50
2017,10,18,08,07,7.50
2017,10,18,08,08,7.50
2017,10,18,08,09,7.50
2017,10,18,08,10,7.50
2017,10,18,08,11,7.50
2017,10,18,08,12,7.50
2017,10,18,08,13,7.50
2017,10,18,08,14,7.50
2017,10,18,08,15,7.50
2017,10,18,08,16,7.50
2017,10,18,08,17,7.50
2017,10,18,08,18,7.50
2017,10,18,08,19,7.50
2017,10,18,08,20,7.50
2017,10,18,08,21,7.50
2017,10,18,08,22,7.50
2017,10,18,08,23,7.50
2017,10,18,08,24,7.60
2017,10,18,08,25,7.60
2017,10,18,08,26,7.60
2017,10,18,08,27,7.60
2017,10,18,08,28,7.60
2017,10,18,08,29,7.60
2017,10,18,08,30,7.60
2017,10,18,08,31,7.60
2017,10,18,08,32,7.60
2017,10,18,08,33,7.60
2017,10,18,08,34,7.60
2017,10,18,08,35,7.60
2017,10,18,08,36,7.60
2017,10,18,08,37,7.60
2017,10,18,08,38,7.60
2017,10,18,08,39,7.60
2017,10,18,08,40,7.60
2017,10,18,08,41,7.60
2017,10,18,08,42,7.60
2017,10,18,08,43,7.60
2017,10,18,08,44,7.60
2017,10,18,08,45,7.70
2017,10,18,08,46,7.70
2017,10,18,08,47,7.70
2017,10,18,08,48,7.70
2017,10,18,08,49,7.70
2017,10,18,08,50,7.70
2017,10,18,08,51,7.70
2017,10,18,08,52,7.70
2017,10,18,08,53,7.70
2017,10,18,08,54,7.70
2017,10,18,08,55,7.70
2017,10,18,08,56,7.70
2017,10,18,08,57,7.70
2017,10,18,08,58,7.70
2017,10,18,08,59,7.70
2017,10,18,09,00,7.70
2017,10,18,09,01,7.70
2017,10,18,09,02,7.70
2017,10,18,09,03,7.70
2017,10,18,09,04,7.70
2017,10,18,09,05,7.80
2017,10,18,09,06,7.80
2017,10,18,09,07,7.80
2017,10,18,09,08,7.80
2017,10,18,09,09,7.80
2017,10,18,09,10,7.80
2017,10,18,09,11,7.80
2017,10,18,09,12,7.80
2017,10,18,09,13,7.80
2017,10,18,09,14,7.80
2017,10,18,09,15,7.80
2017,10,18,09,16,7.80
2017,10,18,09,17,7.80
2017,10,18,09,18,7.80
2017,10,18,09,19,7.80
2017,10,18,09,20,7.90
2017,10,18,09,21,7.90
2017,10,18,09,22,7.90
2017,10,18,09,23,7.90
2017,10,18,09,24,7.90
2017,10,18,09,25,7.90
2017,10,18,09,26,7.90
2017,10,18,09,27,7.90
2017,10,18,09,28,7.90
2017,10,18,09,29,7.90
2017,10,18,09,30,7.90
2017,10,18,09,31,7.90
2017,10,18,09,32,7.90
2017,10,18,09,33,8.00
2017,10,18,09,34,8.00
2017,10,18,09,35,8.00
2017,10,18,09,36,8.00
2017,10,18,09,37,8.00
2017,10,18,09,38,8.00
2017,10,18,09,39,8.00
2017,10,18,09,40,8.00
2017,10,18,09,41,8.00
2017,10,18,09,42,8.00
2017,10,18,09,43,8.00
2017,10,18,09,44,8.00
2017,10,18,09,45,8.00
2017,10,18,09,46,8.00
2017,10,18,09,47,8.00
2017,10,18,09,48,8.10
2017,10,18,09,49,8.10
2017,10,18,09,50,8.10
2017,10,18,09,51,8.10
2017,10,18,09,52,8.10
2017,10,18,09,53,8.10
2017,10,18,09,54,8.10
2017,10,18,09,55,8.10
2017,10,18,09,56,8.10
2017,10,18,09,57,8.10
2017,10,18,09,58,8.10
2017,10,18,09,59,8.10
2017,10,18,10,00,8.10
2017,10,18,10,01,8.10
2017,10,18,10,02,8.10
2017,10,18,10,03,8.10
2017,10,18,10,04,8.10
2017,10,18,10,05,8.10
2017,10,18,10,06,8.10
2017,10,18,10,07,8.10
2017,10,18,10,08,8.10
2017,10,18,10,09,8.10
2017,10,18,10,10,8.10
2017,10,18,10,11,8.10
2017,10,18,10,12,8.10
2017,10,18,10,13,8.10
2017,10,18,10,14,8.10
2017,10,18,10,15,8.10
2017,10,18,10,16,8.10
2017,10,18,10,17,8.10
2017,10,18,10,18,8.10
2017,10,18,10,19,8.10
2017,10,18,10,20,8.10
2017,10,18,10,21,8.10
2017,10,18,10,22,8.10
2017,10,18,10,23,8.10
2017,10,18,10,24,8.10
2017,10,18,10,25,8.10
2017,10,18,10,26,8.10
2017,10,18,10,27,8.10
2017,10,18,10,28,8.10
2017,10,18,10,29,8.10
2017,10,18,10,30,8.10
2017,10,18,10,31,8.10
2017,10,18,10,32,8.10
2017,10,18,10,33,8.10
2017,10,18,10,34,8.20
2017,10,18,10,35,8.20
2017,10,18,10,36,8.20
2017,10,18,10,37,8.20
2017,10,18,10,38,8.20
2017,10,18,10,39,8.20
2017,10,18,10,40,8.20
2017,10,18,10,41,8.20
2017,10,18,10,42,8.20
2017,10,18,10,43,8.20
2017,10,18,10,44,8.20
2017,10,18,10,45,8.20
2017,10,18,10,46,8.20
2017,10,18,10,47,8.20
2017,10,18,10,48,8.20
2017,10,18,10,49,8.20
2017,10,18,10,50,8.20
2017,10,18,10,51,8.20
2017,10,18,10,52,8.20
2017,10,18,10,53,8.20
2017,10,18,10,54,8.20
2017,10,18,10,55,8.20
2017,10,18,10,56,8.20
2017,10,18,10,57,8.20
2017,10,18,10,58,8.20
2017,10,18,10,59,8.20
2017,10,18,11,00,8.20
2017,10,18,11,01,8.20
2017,10,18,11,02,8.20
2017,10,18,11,03,8.20
2017,10,18,11,04,8.20
2017,10,18,11,05,8.20
2017,10,18,11,06,8.20
2017,10,18,11,07,8.20
2017,10,18,11,08,8.20
2017,10,18,11,09,8.20
2017,10,18,11,10,8.20
2017,10,18,11,11,8.20
2017,10,18,11,12,8.20
2017,10,18,11,13,8.20
2017,10,18,11,14,8.20
2017,10,18,11,15,8.20
2017,10,18,11,16,8.20
2017,10,18,11,17,8.20
2017,10,18,11,18,8.20
2017,10,18,11,19,8.20
2017,10,18,11,20,8.20
2017,10,18,11,21,8.20
2017,10,18,11,22,8.20
2017,10,18,11,23,8.20
2017,10,18,11,24,8.20
2017,10,18,11,25,8.20
2017,10,18,11,26,8.20
2017,10,18,11,27,8.20
2017,10,18,11,28,8.20
2017,10,18,11,29,8.20
2017,10,18,11,30,8.30
2017,10,18,11,31,8.30
2017,10,18,11,32,8.30
2017,10,18,11,33,8.30
2017,10,18,11,34,8.30
2017,10,18,11,35,8.30
2017,10,18,11,36,8.30
2017,10,18,11,37,8.30
2017,10,18,11,38,8.30
2017,10,18,11,39,8.30
2017,10,18,11,40,8.30
2017,10,18,11,41,8.30
2017,10,18,11,42,8.40
2017,10,18,11,43,8.40
2017,10,18,11,44,8.40
2017,10,18,11,45,8.40
2017,10,18,11,46,8.40
2017,10,18,11,47,8.40
2017,10,18,11,48,8.40
2017,10,18,11,49,8.50
2017,10,18,11,50,8.50
2017,10,18,11,51,8.50
2017,10,18,11,52,8.50
2017,10,18,11,53,8.50
2017,10,18,11,54,8.50
2017,10,18,11,55,8.50
2017,10,18,11,56,8.60
2017,10,18,11,57,8.60
2017,10,18,11,58,8.60
2017,10,18,11,59,8.60
2017,10,18,12,00,8.60
2017,10,18,12,01,8.60
2017,10,18,12,02,8.60
2017,10,18,12,03,8.60
2017,10,18,12,04,8.60
2017,10,18,12,05,8.60
2017,10,18,12,06,8.60
2017,10,18,12,07,8.60
2017,10,18,12,08,8.60
2017,10,18,12,09,8.60
2017,10,18,12,10,8.60
2017,10,18,12,11,8.60
2017,10,18,12,12,8.60
2017,10,18,12,13,8.60
2017,10,18,12,14,8.60
2017,10,18,12,15,8.60
2017,10,18,12,16,8.70
2017,10,18,12,17,8.70
2017,10,18,12,18,8.70
2017,10,18,12,19,8.70
2017,10,18,12,20,8.70
2017,10,18,12,21,8.70
2017,10,18,12,22,8.70
2017,10,18,12,23,8.80
2017,10,18,12,24,8.80
2017,10,18,12,25,8.80
2017,10,18,12,26,8.80
2017,10,18,12,27,8.80
2017,10,18,12,28,8.80
2017,10,18,12,29,8.80
2017,10,18,12,30,8.90
2017,10,18,12,31,8.90
2017,10,18,13,06,9.30
2017,10,18,13,07,9.30
2017,10,18,13,08,9.30
2017,10,18,13,09,9.30
2017,10,18,13,10,9.30
2017,10,18,13,11,9.40
2017,10,18,13,12,9.40
2017,10,18,13,13,9.40
2017,10,18,13,14,9.40
2017,10,18,13,15,9.40
2017,10,18,13,16,9.40
2017,10,18,13,17,9.50
2017,10,18,13,18,9.50
2017,10,18,13,19,9.50
2017,10,18,13,20,9.50
2017,10,18,13,21,9.50
2017,10,18,13,22,9.60
2017,10,18,13,23,9.60
2017,10,18,13,24,9.60
2017,10,18,13,25,9.60
2017,10,18,13,26,9.60
2017,10,18,13,27,9.60
2017,10,18,13,28,9.60
2017,10,18,13,29,9.60
2017,10,18,13,30,9.60
2017,10,18,13,31,9.70
2017,10,18,13,32,9.70
2017,10,18,13,33,9.70
2017,10,18,13,34,9.70
2017,10,18,13,35,9.70
2017,10,18,13,36,9.70
2017,10,18,13,37,9.70
2017,10,18,13,38,9.70
2017,10,18,13,39,9.70
2017,10,18,13,40,9.70
2017,10,18,13,41,9.70
2017,10,18,13,42,9.70
2017,10,18,13,43,9.70
2017,10,18,13,44,9.70
2017,10,18,13,45,9.80
2017,10,18,13,46,9.80
2017,10,18,13,47,9.80
2017,10,18,13,48,9.80
2017,10,18,13,49,9.80
2017,10,18,13,50,9.80
2017,10,18,13,51,9.80
2017,10,18,13,52,9.80
2017,10,18,13,53,9.80
2017,10,18,13,54,9.80
2017,10,18,13,55,9.80
2017,10,18,13,56,9.80
2017,10,18,13,57,9.80
2017,10,18,13,58,9.80
2017,10,18,13,59,9.80
2017,10,18,14,00,9.80
2017,10,18,14,01,9.80
2017,10,18,14,02,9.80
2017,10,18,14,03,9.80
2017,10,18,14,04,9.80
2017,10,18,14,05,9.80
2017,10,18,14,06,9.80
2017,10,18,14,07,9.80
2017,10,18,14,08,9.80
2017,10,18,14,09,9.80
2017,10,18,14,10,9.80
2017,10,18,14,11,9.80
2017,10,18,14,12,9.80
2017,10,18,14,13,9.80
2017,10,18,14,14,9.80
2017,10,18,14,15,9.80
2017,10,18,14,16,9.80
2017,10,18,14,17,9.80
2017,10,18,14,18,9.80
2017,10,18,14,19,9.80
2017,10,18,14,20,9.80
2017,10,18,14,21,9.80
2017,10,18,14,22,9.80
2017,10,18,14,23,9.80
2017,10,18,14,24,9.80
2017,10,18,14,25,9.80
2017,10,18,14,26,9.80
2017,10,18,14,27,9.80
2017,10,18,14,28,9.80
2017,10,18,14,29,9.80
2017,10,18,14,30,9.80
2017,10,18,14,31,9.80
2017,10,18,14,32,9.90
2017,10,18,14,33,9.90
2017,10,18,14,34,9.90
2017,10,18,14,35,9.90
2017,10,18,14,36,9.90
2017,10,18,14,37,9.90
2017,10,18,14,38,9.90
2017,10,18,14,39,9.90
2017,10,18,14,40,9.90
2017,10,18,14,41,9.90
2017,10,18,14,42,9.90
2017,10,18,14,43,9.90
2017,10,18,14,44,9.90
2017,10,18,14,45,9.90
2017,10,18,14,46,9.90
2017,10,18,14,47,9.90
2017,10,18,14,48,9.90
2017,10,18,14,49,9.90
2017,10,18,14,50,9.90
2017,10,18,14,51,9.90
2017,10,18,14,52,9.90
2017,10,18,14,53,9.90
2017,10,18,14,54,9.90
2017,10,18,14,55,9.90
2017,10,18,14,56,9.90
2017,10,18,14,57,9.90
2017,10,18,14,58,9.90
2017,10,18,14,59,10.00
2017,10,18,15,00,10.00
2017,10,18,15,01,10.00
2017,10,18,15,02,10.00
2017,10,18,15,03,10.00
2017,10,18,15,04,10.00
2017,10,18,15,05,10.00
2017,10,18,15,06,10.00
2017,10,18,15,07,10.00
2017,10,18,15,08,10.00
2017,10,18,15,09,10.10
2017,10,18,15,10,10.10
2017,10,18,15,11,10.10
2017,10,18,15,12,10.10
2017,10,18,15,13,10.10
2017,10,18,15,14,10.10
2017,10,18,15,15,10.10
2017,10,18,15,16,10.10
2017,10,18,15,17,10.10
2017,10,18,15,18,10.10
2017,10,18,15,19,10.10
2017,10,18,15,20,10.10
2017,10,18,15,21,10.10
2017,10,18,15,22,10.10
2017,10,18,15,23,10.10
2017,10,18,15,24,10.10
2017,10,18,15,25,10.10
2017,10,18,15,26,10.10
2017,10,18,15,27,10.20
2017,10,18,15,28,10.20
2017,10,18,15,29,10.20
2017,10,18,15,30,10.20
2017,10,18,15,31,10.20
2017,10,18,15,32,10.20
2017,10,18,15,33,10.20
2017,10,18,15,34,10.20
2017,10,18,15,35,10.20
2017,10,18,15,36,10.20
2017,10,18,15,37,10.20
2017,10,18,15,38,10.30
2017,10,18,15,39,10.30
2017,10,18,15,40,10.30
2017,10,18,15,41,10.30
2017,10,18,15,42,10.30
2017,10,18,15,43,10.30
2017,10,18,15,44,10.30
2017,10,18,15,45,10.30
2017,10,18,15,46,10.30
2017,10,18,15,47,10.30
2017,10,18,15,48,10.30
2017,10,18,15,49,10.30
2017,10,18,15,50,10.30
2017,10,18,15,51,10.30
2017,10,18,15,52,10.30
2017,10,18,15,53,10.30
2017,10,18,15,54,10.30
2017,10,18,15,55,10.30
2017,10,18,15,56,10.30
2017,10,18,15,57,10.30
2017,10,18,15,58,10.30
2017,10,18,15,59,10.30
2017,10,18,16,00,10.30
2017,10,18,16,01,10.30
2017,10,18,16,02,10.30
2017,10,18,16,03,10.30
2017,10,18,16,04,10.30
2017,10,18,16,05,10.30
2017,10,18,16,06,10.40
2017,10,18,16,07,10.40
2017,10,18,16,08,10.40
2017,10,18,16,09,10.40
2017,10,18,16,10,10.40
2017,10,18,16,11,10.40
2017,10,18,16,12,10.40
2017,10,18,16,13,10.40
2017,10,18,16,14,10.40
2017,10,18,16,15,10.40
2017,10,18,16,16,10.50
2017,10,18,16,17,10.60
2017,10,18,16,18,10.70
2017,10,18,16,19,10.90
2017,10,18,16,20,11.00
2017,10,18,16,21,11.20
2017,10,18,16,22,11.30
2017,10,18,16,23,11.40
2017,10,18,16,24,11.60
2017,10,18,16,25,11.80
2017,10,18,16,26,11.90
2017,10,18,16,27,11.90
2017,10,18,16,28,12.00
2017,10,18,16,29,12.10
2017,10,18,16,30,12.10
2017,10,18,16,31,12.20
2017,10,18,16,32,12.20
2017,10,18,16,33,12.20
2017,10,18,16,34,12.20
2017,10,18,16,35,12.20
2017,10,18,16,36,12.20
2017,10,18,16,37,12.20
2017,10,18,16,38,12.30
2017,10,18,16,39,12.30
2017,10,18,16,40,12.30
2017,10,18,16,41,12.30
2017,10,18,16,42,12.30
2017,10,18,16,43,12.30
2017,10,18,16,44,12.30
2017,10,18,16,45,12.30
2017,10,18,16,46,12.40
2017,10,18,16,47,12.40
2017,10,18,16,48,12.40
2017,10,18,16,49,12.40
2017,10,18,16,50,12.40
2017,10,18,16,51,12.40
2017,10,18,16,52,12.40
2017,10,18,16,53,12.40
2017,10,18,16,54,12.40
2017,10,18,16,55,12.40
2017,10,18,16,56,12.40
2017,10,18,16,57,12.40
2017,10,18,16,58,12.40
2017,10,18,16,59,12.40
2017,10,18,17,00,12.40
2017,10,18,17,01,12.40
2017,10,18,17,02,12.40
2017,10,18,17,03,12.40
2017,10,18,17,04,12.40
2017,10,18,17,05,12.40
2017,10,18,17,06,12.40
2017,10,18,17,07,12.40
2017,10,18,17,08,12.40
2017,10,18,17,09,12.40
2017,10,18,17,10,12.40
2017,10,18,17,11,12.40
2017,10,18,17,12,12.40
2017,10,18,17,13,12.40
2017,10,18,17,14,12.40
2017,10,18,17,15,12.40
2017,10,18,17,16,12.30
2017,10,18,17,17,12.30
2017,10,18,17,18,12.30
2017,10,18,17,19,12.30
2017,10,18,17,20,12.30
2017,10,18,17,21,12.30
2017,10,18,17,22,12.30
2017,10,18,17,23,12.20
2017,10,18,17,24,12.20
2017,10,18,17,25,12.20
2017,10,18,17,26,12.20
2017,10,18,17,27,12.20
2017,10,18,17,28,12.10
2017,10,18,17,29,12.10
2017,10,18,17,30,12.10
2017,10,18,17,31,12.00
2017,10,18,17,32,12.00
2017,10,18,17,33,12.00
2017,10,18,17,34,11.90
2017,10,18,17,35,11.90
2017,10,18,17,36,11.90
2017,10,18,17,37,11.90
2017,10,18,17,38,11.90
2017,10,18,17,39,11.90
2017,10,18,17,40,11.80
2017,10,18,17,41,11.80
2017,10,18,17,42,11.80
2017,10,18,17,43,11.80
2017,10,18,17,44,11.80
2017,10,18,17,45,11.70
2017,10,18,17,46,11.70
2017,10,18,17,47,11.70
2017,10,18,17,48,11.70
2017,10,18,17,49,11.70
2017,10,18,17,50,11.70
2017,10,18,17,51,11.60
2017,10,18,17,52,11.60
2017,10,18,17,53,11.60
2017,10,18,17,54,11.60
2017,10,18,17,55,11.60
2017,10,18,17,56,11.60
2017,10,18,17,57,11.60
2017,10,18,17,58,11.60
2017,10,18,17,59,11.60
2017,10,18,18,00,11.60
2017,10,18,18,01,11.60
2017,10,18,18,02,11.50
2017,10,18,18,03,11.50
2017,10,18,18,04,11.50
2017,10,18,18,05,11.50
2017,10,18,18,06,11.50
2017,10,18,18,07,11.40
2017,10,18,18,08,11.40
2017,10,18,18,09,11.40
2017,10,18,18,10,11.40
2017,10,18,18,11,11.40
2017,10,18,18,12,11.40
2017,10,18,18,13,11.40
2017,10,18,18,14,11.40
2017,10,18,18,15,11.40
2017,10,18,18,16,11.40
2017,10,18,18,17,11.40
2017,10,18,18,18,11.40
2017,10,18,18,19,11.30
2017,10,18,18,20,11.30
2017,10,18,18,21,11.30
2017,10,18,18,22,11.30
2017,10,18,18,23,11.30
2017,10,18,18,24,11.30
2017,10,18,18,25,11.30
2017,10,18,18,26,11.30
2017,10,18,18,27,11.30
2017,10,18,18,28,11.30
2017,10,18,18,29,11.30
2017,10,18,18,30,11.20
2017,10,18,18,31,11.20